This is the latest recevied weather packets stored in our database for station/object LA1HSA-13. If no packets are shown the sender has not sent any weather packets the latest 10 day(s).
| Time | Temp. | Humidity | Pressure | Rain* | Wind** | Luminosity | Snow |
|---|---|---|---|---|---|---|---|
| 1778031003 | -2.78° C | 79% | 1012.4 hPa | 0 mm | - | - | - |
| 1778030403 | -2.78° C | 79% | 1012.2 hPa | 0 mm | - | - | - |
| 1778029803 | -2.78° C | 79% | 1012.1 hPa | 0 mm | - | - | - |
| 1778029203 | -2.78° C | 77% | 1012.1 hPa | 0 mm | - | - | - |
| 1778028603 | -2.22° C | 76% | 1011.7 hPa | 0 mm | - | - | - |
| 1778028003 | -1.67° C | 76% | 1012.1 hPa | 0 mm | - | - | - |
| 1778027404 | -2.22° C | 75% | 1012.1 hPa | 0 mm | - | - | - |
| 1778026803 | -1.67° C | 75% | 1011.8 hPa | 0 mm | - | - | - |
| 1778026203 | -1.67° C | 76% | 1011.9 hPa | 0 mm | - | - | - |
| 1778025604 | -1.67° C | 74% | 1012 hPa | 0 mm | - | - | - |
| 1778025003 | -1.67° C | 74% | 1011.9 hPa | 0 mm | - | - | - |
| 1778024403 | -1.11° C | 72% | 1011.9 hPa | 0 mm | - | - | - |
| 1778023803 | -1.11° C | 70% | 1012.1 hPa | 0 mm | - | - | - |
| 1778023203 | -1.11° C | 70% | 1012 hPa | 0 mm | - | - | - |
| 1778022604 | -1.11° C | 70% | 1011.9 hPa | 0 mm | - | - | - |
| 1778022003 | -0.56° C | 69% | 1011.9 hPa | 0 mm | - | - | - |
| 1778021403 | -0.56° C | 68% | 1011.6 hPa | 0 mm | - | - | - |
| 1778020803 | -0.56° C | 68% | 1011.8 hPa | 0 mm | - | - | - |
| 1778020203 | 0° C | 65% | 1011.8 hPa | 0 mm | - | - | - |
| 1778019603 | 0.56° C | 63% | 1011.8 hPa | 0 mm | - | - | - |
| 1778019003 | 1.11° C | 60% | 1011.6 hPa | 0 mm | - | - | - |
| 1778018421 | 1.11° C | 57% | 1011.9 hPa | 0 mm | - | - | - |
| 1778017803 | 1.11° C | 59% | 1011.9 hPa | 0 mm | - | - | - |
| 1778017204 | 1.67° C | 56% | 1011.8 hPa | 0 mm | - | - | - |
| 1778016603 | 1.67° C | 55% | 1011.7 hPa | 0 mm | - | - | - |
* Rain latest hour (hover to see other rain measurements)
** Current wind speed in m/s (hover to see current wind gust speed)